Wind_Speed
41 39 38 35 35 36 34 29 29 28 28 29 28 28 29 30 31 32 33 34 33 34 36 40 41 41 41 40 38 36 33 31 30 31 27 30 30 26 26 29 20 14 21
42 41 40 39 36 36 35 33 31 29 25 27 29 29 27 28 31 30 31 35 36 36 32 35 38 41 42 41 39 36 32 28 30 31 35 30 24 22 21 20 18 18 22
45 43 42 41 40 36 33 33 31 31 28 26 26 25 27 29 29 31 33 34 37 38 37 35 38 40 41 40 38 37 33 27 28 31 21 28 27 23 15 16 19 27 23
46 44 43 43 42 36 34 35 33 33 32 32 29 27 27 30 32 31 33 36 37 37 39 40 38 41 40 40 39 37 35 30 29 31 35 32 29 29 30 33 31 33 34
47 45 44 45 40 39 36 33 32 29 30 31 28 29 30 29 30 30 31 33 38 37 37 37 37 38 40 39 37 37 37 32 29 28 34 27 28 30 27 31 30 32 26
45 43 43 42 41 39 37 32 30 31 31 30 31 28 30 28 29 29 29 31 34 35 35 36 37 39 39 39 38 35 36 33 30 25 24 25 24 27 24 20 22 20 20
45 43 45 41 40 38 36 32 34 33 32 30 27 27 29 29 26 28 29 29 29 33 33 33 34 37 38 39 37 35 32 30 30 30 29 29 27 26 20 16 16 20 22
44 44 40 39 41 38 34 30 27 23 22 22 25 25 27 32 27 27 30 30 31 29 31 32 35 34 37 38 36 34 31 30 29 32 35 32 31 25 25 24 19 17 21
40 38 37 35 32 25 24 22 22 21 19 18 19 20 19 22 28 28 28 29 30 30 28 31 32 35 36 36 37 35 31 32 33 32 34 32 29 28 23 18 15 12 21
32 30 30 24 23 22 21 20 17 15 14 13 14 15 18 19 20 23 24 26 27 29 30 30 30 31 32 33 34 34 38 38 35 19 27 25 22 20 20 12 9 22 24
29 27 22 21 18 14 11 7 5 6 6 7 8 11 14 16 19 18 20 23 24 27 29 27 28 30 30 31 34 34 40 26 43 41 33 34 31 21 19 12 18 21 23
23 18 17 13 8 5 5 4 1 2 2 3 3 5 9 19 11 7 20 21 22 23 26 26 24 26 28 33 33 31 33 37 34 16 25 28 24 24 18 15 20 22 16
17 14 10 5 3 4 2 2 3 1 1 4 2 6 6 9 12 15 16 16 19 21 23 22 24 25 27 29 27 30 32 32 30 35 20 23 29 24 24 26 21 18 12
11 8 4 4 5 4 3 4 5 5 2 1 1 6 8 8 7 8 13 18 18 19 20 21 24 24 26 28 32 34 38 38 43 19 26 27 27 31 25 19 17 11 9
5 4 3 5 3 4 5 6 6 7 3 4 5 7 8 10 8 5 12 11 14 17 20 22 24 26 26 27 27 27 26 31 35 30 30 30 24 20 20 15 11 9 9
3 4 3 2 2 2 6 8 7 10 10 3 5 8 7 9 8 3 9 7 11 14 18 22 24 26 26 25 24 22 18 24 26 16 17 15 17 15 13 13 10 6 9
2 2 1 0 1 3 7 13 13 8 6 3 5 10 9 9 6 5 6 9 13 15 19 23 25 25 24 22 20 21 30 29 20 15 16 21 15 15 13 11 11 9 9
4 2 1 2 3 2 4 13 16 5 6 3 2 3 5 12 10 11 9 5 14 19 18 18 20 20 23 24 23 22 19 21 19 18 20 16 13 12 11 7 13 13 6
5 3 2 1 1 1 5 7 12 9 10 10 8 8 7 9 7 7 13 11 8 11 20 18 24 21 15 17 20 19 20 21 18 17 20 17 11 13 12 16 14 12 7
6 6 6 5 2 1 5 7 13 12 14 11 10 9 8 7 8 10 11 12 10 9 16 19 23 23 23 25 22 17 19 15 19 20 19 13 12 16 19 18 5 1 6
4 6 6 2 3 4 6 7 10 8 8 9 12 14 11 14 16 16 13 15 18 18 19 23 28 24 24 23 19 21 22 22 20 17 11 13 10 11 10 4 4 9 13
3 4 6 5 4 7 9 8 6 7 10 16 12 13 13 17 16 15 16 18 17 21 23 27 27 25 24 22 19 17 20 15 13 12 6 12 14 12 6 4 8 12 14
4 6 4 7 7 9 10 11 7 7 7 14 14 11 14 16 17 13 10 17 19 25 25 23 21 19 16 16 17 17 19 12 9 11 12 11 1 3 5 8 12 15 19
4 4 6 9 8 11 13 10 7 6 6 10 15 13 13 12 13 11 13 13 17 21 24 25 22 19 24 22 20 14 12 10 9 7 10 6 1 4 8 11 15 19 23
7 6 7 7 8 12 12 10 7 9 7 8 12 13 12 9 8 9 14 17 16 21 23 23 20 21 21 18 15 10 3 5 12 9 4 1 5 8 12 16 19 22 24
7 3 4 8 9 12 12 13 12 11 9 8 9 10 11 12 11 13 17 18 17 19 19 21 21 19 17 13 10 8 11 11 7 3 2 5 8 13 16 18 23 26 28
Wind_Direction
312 312 311 306 305 304 303 297 292 290 277 271 272 264 265 255 250 243 238 240 240 234 234 235 235 237 240 243 245 242 239 240 241 239 242 242 250 247 254 266 269 236 249
311 313 310 308 304 299 297 292 289 284 282 273 270 263 258 254 249 247 239 234 235 238 236 239 237 235 235 239 242 240 238 234 236 239 239 240 239 254 267 254 271 228 267
312 311 309 304 302 298 293 290 286 281 276 274 267 265 255 246 248 247 244 240 238 236 237 237 238 235 235 236 238 237 237 233 232 222 233 231 261 236 254 248 257 270 290
309 309 304 303 303 300 294 289 283 279 271 269 262 256 252 247 243 246 244 240 241 241 240 240 240 235 234 235 236 234 236 235 231 231 230 240 247 258 257 271 267 264 278
305 304 302 303 301 300 296 289 285 277 271 270 256 258 254 251 246 244 240 237 236 239 239 235 234 232 231 233 236 234 235 235 232 231 226 247 241 254 255 265 264 277 273
302 300 300 299 298 297 292 283 282 278 272 265 263 261 251 249 244 238 236 233 232 233 234 232 234 231 228 230 234 235 234 234 232 230 228 209 222 258 271 253 260 268 289
300 300 300 297 296 293 292 284 277 278 271 263 260 256 252 246 246 240 233 231 230 230 230 229 230 229 228 228 227 229 228 229 231 232 240 252 251 254 256 264 290 297 294
297 299 299 296 295 294 290 285 280 274 272 265 250 256 254 249 247 244 237 233 230 231 231 225 226 225 227 226 225 225 224 227 232 234 237 246 245 248 242 254 280 303 289
301 302 301 300 296 292 289 285 279 277 270 260 251 248 247 243 239 242 238 235 231 229 230 228 224 223 223 222 224 225 226 228 230 238 240 238 247 252 241 257 278 292 285
299 301 300 301 299 299 293 287 277 268 261 259 256 249 240 237 237 238 232 229 225 222 224 228 225 224 221 218 217 217 222 210 231 232 221 231 245 257 239 244 267 271 280
308 300 300 303 303 306 312 310 291 261 260 257 255 247 230 218 219 202 222 220 223 221 222 221 223 219 219 216 218 216 208 199 204 227 245 243 229 232 237 228 254 263 284
306 305 304 304 311 328 350 350 344 294 272 304 215 214 206 209 235 216 213 212 216 212 213 215 215 215 216 214 217 214 217 224 228 244 228 222 211 215 220 243 251 266 268
316 314 312 305 324 357 292 327 353 354 178 3 115 166 186 205 204 193 187 191 200 204 210 200 204 208 211 209 209 216 217 229 223 245 253 211 210 224 233 228 255 254 257
322 331 338 324 333 352 16 37 30 25 25 211 138 155 165 187 183 191 197 191 197 198 195 193 195 198 197 196 200 205 211 212 219 248 220 196 211 245 224 244 246 235 218
343 0 344 331 350 43 46 33 353 360 70 139 142 154 164 159 145 183 150 185 187 188 190 190 185 186 188 191 195 195 204 215 235 247 228 215 223 211 248 234 197 187 197
343 324 337 346 339 42 28 7 359 16 53 107 165 174 153 133 152 163 104 155 169 175 182 183 181 180 184 189 187 191 211 216 219 226 193 210 212 227 199 188 182 196 199
127 317 94 283 260 32 18 23 33 48 35 78 156 180 175 151 117 109 125 161 163 169 179 180 181 180 180 185 190 213 221 222 232 222 182 200 214 194 184 182 186 207 199
166 94 5 201 186 77 50 25 14 41 47 98 94 153 128 134 152 151 157 170 175 168 172 178 184 188 199 199 200 205 196 172 175 166 193 202 183 185 188 208 195 193 186
180 151 114 116 155 86 39 26 20 71 87 84 85 144 131 140 150 159 156 170 177 192 181 180 195 195 190 184 169 163 165 157 166 185 179 178 184 191 217 211 184 181 202
193 173 148 148 121 113 95 84 83 86 73 75 74 107 124 117 142 145 137 114 126 146 152 143 147 141 139 141 145 146 159 174 174 164 172 188 199 218 244 232 159 116 272
212 200 211 226 166 200 160 127 87 61 59 74 96 81 92 118 101 118 109 119 109 110 128 138 143 134 140 148 148 153 157 163 161 159 161 193 222 220 143 148 204 250 273
221 212 223 223 158 169 170 162 119 60 71 92 97 89 101 107 105 110 103 118 113 105 119 132 133 137 134 135 142 144 145 147 161 168 175 209 207 161 173 200 264 283 297
268 224 205 200 166 169 154 162 141 82 79 84 102 102 109 107 100 108 114 112 111 121 123 117 122 139 147 134 146 147 159 162 175 209 231 235 35 128 248 286 302 305 310
337 235 186 181 177 177 155 161 147 115 99 96 97 109 115 129 101 95 118 124 133 125 129 133 130 137 135 136 150 147 160 187 228 246 94 103 142 296 302 308 310 312 310
59 144 172 163 164 178 165 153 156 152 130 117 109 111 127 123 123 112 130 135 137 142 135 135 133 127 138 141 148 156 181 155 108 103 112 348 315 313 319 319 315 313 309
44 68 224 207 166 171 161 160 160 162 145 133 123 118 124 117 110 118 128 130 145 148 146 144 146 142 132 153 169 170 95 96 97 67 327 329 334 327 318 314 314 312 312
Height
5781 5777 5773 5770 5766 5762 5759 5757 5756 5755 5755 5754 5754 5756 5756 5758 5760 5763 5768 5772 5775 5780 5786 5791 5795 5800 5804 5810 5814 5818 5822 5827 5831 5834 5838 5841 5844 5846 5847 5849 5850 5849 5851
5774 5770 5766 5763 5760 5757 5754 5751 5749 5748 5748 5747 5747 5747 5750 5752 5753 5756 5760 5765 5769 5773 5779 5783 5787 5793 5798 5803 5808 5812 5816 5822 5826 5829 5833 5836 5840 5843 5844 5844 5846 5846 5847
5768 5764 5759 5755 5753 5751 5748 5745 5743 5741 5741 5741 5741 5742 5743 5746 5747 5749 5753 5758 5762 5767 5772 5776 5781 5786 5791 5797 5802 5807 5812 5817 5821 5824 5828 5834 5834 5837 5840 5842 5842 5844 5843
5763 5758 5753 5749 5744 5743 5741 5738 5736 5735 5734 5733 5734 5735 5735 5737 5741 5743 5746 5750 5753 5759 5764 5770 5775 5780 5786 5791 5796 5801 5806 5812 5816 5819 5824 5828 5830 5834 5836 5838 5839 5840 5840
5756 5751 5746 5741 5737 5735 5732 5729 5727 5726 5726 5725 5726 5727 5728 5730 5733 5736 5739 5743 5747 5752 5757 5763 5768 5773 5779 5785 5790 5796 5802 5808 5812 5816 5821 5825 5828 5831 5832 5833 5835 5835 5836
5749 5744 5740 5734 5730 5727 5723 5720 5718 5718 5717 5717 5717 5719 5720 5722 5725 5729 5733 5737 5741 5746 5751 5756 5761 5766 5772 5779 5784 5790 5797 5803 5807 5813 5818 5820 5823 5826 5826 5828 5831 5831 5832
5740 5736 5731 5726 5721 5718 5714 5712 5709 5708 5708 5708 5709 5711 5713 5716 5720 5724 5728 5732 5736 5741 5746 5750 5755 5760 5766 5772 5779 5786 5792 5797 5803 5808 5812 5816 5820 5821 5825 5826 5827 5828 5829
5733 5728 5723 5717 5713 5709 5706 5703 5702 5701 5700 5700 5703 5704 5707 5711 5713 5718 5722 5727 5732 5736 5740 5745 5748 5755 5760 5767 5775 5782 5787 5793 5798 5803 5808 5811 5813 5817 5821 5824 5824 5824 5826
5725 5721 5715 5710 5705 5701 5699 5697 5696 5696 5696 5697 5698 5699 5701 5703 5707 5711 5716 5721 5726 5731 5734 5737 5743 5749 5755 5762 5769 5776 5782 5786 5790 5795 5800 5805 5808 5813 5816 5819 5821 5821 5821
5721 5715 5710 5705 5700 5698 5695 5693 5692 5692 5692 5693 5694 5695 5697 5700 5703 5706 5710 5714 5719 5724 5729 5733 5737 5744 5751 5758 5764 5771 5775 5762 5785 5786 5794 5801 5806 5810 5814 5814 5815 5817 5818
5714 5710 5705 5702 5699 5696 5692 5690 5689 5689 5689 5689 5690 5690 5692 5695 5696 5697 5705 5709 5713 5720 5724 5729 5734 5739 5747 5754 5758 5765 5773 5751 5777 5784 5791 5795 5801 5807 5811 5809 5812 5813 5815
5709 5705 5702 5700 5697 5694 5692 5690 5689 5689 5688 5687 5688 5689 5690 5692 5693 5697 5703 5706 5710 5716 5720 5726 5730 5736 5743 5749 5754 5763 5770 5771 5778 5781 5786 5792 5796 5802 5805 5807 5809 5810 5810
5707 5703 5701 5699 5697 5695 5693 5691 5690 5689 5688 5688 5689 5690 5690 5692 5694 5697 5700 5703 5708 5714 5718 5723 5728 5732 5738 5747 5754 5757 5764 5769 5776 5782 5783 5791 5794 5797 5800 5803 5805 5807 5806
5706 5703 5702 5700 5699 5697 5695 5693 5692 5691 5691 5691 5691 5691 5692 5692 5695 5698 5701 5701 5707 5713 5717 5721 5725 5730 5735 5744 5751 5757 5763 5769 5772 5780 5785 5788 5791 5792 5797 5800 5801 5802 5804
5705 5704 5703 5701 5700 5699 5697 5696 5694 5692 5693 5692 5692 5692 5693 5696 5697 5696 5699 5703 5706 5710 5715 5719 5725 5730 5734 5741 5748 5755 5762 5768 5773 5777 5780 5786 5791 5794 5795 5797 5799 5801 5804
5705 5704 5703 5702 5701 5701 5699 5698 5696 5695 5694 5694 5693 5694 5695 5696 5695 5694 5696 5702 5706 5711 5715 5720 5725 5730 5736 5741 5748 5755 5760 5765 5771 5775 5777 5784 5790 5792 5794 5796 5798 5800 5801
5705 5704 5703 5703 5703 5703 5701 5699 5698 5696 5695 5694 5694 5694 5695 5697 5697 5698 5700 5704 5708 5713 5717 5721 5726 5731 5737 5741 5747 5754 5759 5764 5768 5774 5778 5785 5788 5791 5793 5795 5797 5799 5800
5705 5704 5704 5704 5705 5705 5704 5702 5698 5698 5698 5696 5695 5695 5695 5698 5699 5701 5703 5706 5709 5713 5718 5722 5725 5730 5735 5741 5746 5751 5757 5764 5769 5774 5780 5784 5787 5791 5793 5795 5796 5797 5799
5705 5704 5704 5705 5705 5706 5705 5704 5702 5702 5701 5699 5698 5698 5699 5700 5702 5703 5706 5708 5710 5713 5717 5721 5724 5729 5733 5739 5745 5753 5758 5764 5770 5776 5780 5784 5787 5790 5792 5793 5794 5796 5798
5705 5705 5705 5706 5707 5706 5707 5706 5706 5706 5705 5703 5702 5703 5702 5704 5705 5707 5708 5710 5711 5712 5716 5720 5725 5731 5736 5742 5749 5755 5760 5766 5771 5776 5780 5785 5788 5790 5791 5791 5794 5795 5796
5705 5705 5705 5706 5707 5707 5708 5708 5708 5708 5708 5706 5705 5705 5706 5707 5708 5709 5712 5714 5715 5717 5719 5724 5730 5736 5741 5746 5752 5757 5762 5767 5773 5777 5781 5785 5787 5789 5789 5792 5793 5793 5794
5705 5705 5705 5706 5708 5707 5708 5710 5711 5710 5710 5709 5709 5710 5710 5712 5713 5715 5717 5719 5720 5722 5726 5730 5735 5740 5745 5750 5755 5760 5766 5771 5775 5780 5782 5785 5786 5787 5789 5790 5792 5794 5793
5705 5704 5705 5706 5707 5707 5709 5711 5713 5714 5713 5714 5713 5713 5715 5717 5717 5719 5721 5723 5725 5727 5731 5735 5740 5743 5748 5753 5758 5764 5769 5773 5777 5780 5782 5783 5787 5787 5790 5791 5791 5790 5788
5704 5703 5704 5706 5708 5708 5711 5713 5715 5716 5717 5716 5717 5717 5718 5721 5722 5724 5724 5726 5730 5732 5736 5740 5744 5748 5752 5757 5763 5768 5772 5775 5778 5781 5783 5785 5787 5789 5789 5788 5788 5786 5784
5704 5704 5704 5706 5708 5709 5713 5715 5716 5718 5719 5720 5720 5721 5723 5724 5725 5726 5727 5729 5733 5736 5738 5744 5748 5753 5757 5761 5766 5770 5774 5777 5780 5781 5784 5786 5787 5786 5785 5785 5784 5781 5778
5707 5705 5705 5706 5708 5710 5713 5716 5718 5720 5722 5723 5724 5725 5726 5728 5728 5728 5731 5733 5736 5739 5742 5747 5752 5757 5761 5764 5768 5772 5776 5778 5780 5782 5783 5784 5783 5783 5782 5781 5777 5775 5771